Retour au catalogue

FENGYUN 1C DEB

ActifPO
NORAD 30811·DEBRIS·🇨🇳 China

Lancé May 10, 1999 depuis Taiyuan Satellite Launch Center

Loading…

Prochains Passages (prochaines 24 heures)

TLE

FraisSource: Space-Track

Époque: Sep 14, 2026, 11:21 UTC

1 30811U 99025AUV 26257.47343188  .00001003  00000-0  10307-2 0  9995
2 30811  98.7612 274.5367 0278018  45.6115 316.7436 13.62619352966212

Suivez FENGYUN 1C DEB en temps réel avec AllMySat

Download on the App Store